Date String (YYYY-MM-DD hh:mm:ss) UTC,Instrument flags,absolute air pressure of the measurement (hPa),sample flow rate (lpm),inlet stack bypass flow (lpm),air temperature of the measurement (°C),ambient temperature measured by the external sensor (°C),aerosol sample conditioner tube jacket temperature (°C),OPC LED temperature (°C),internal box temperature (°C),relative humidity of the measurement (%),span deviation,mass concentration of particles derived from Lorenz-Mie calculation of OPC scattering (μg/m³),mass concentration of particles derived from Lorenz-Mie calculation of OPC scattering (μg/m³),mass concentration of particles derived from Lorenz-Mie calculation of OPC scattering (μg/m³)
DateTimeUTC,F1_M11,P_M11,Q1_M11,Q2_M11,T1_M11,T2_M11,T3_M11,T4_M11,T5_M11,U1_M11,ZSPAN_M11,X0_M11,X2_M11,X1_M11
2024-03-27 19:00:00,SystemResetWarning,0827.4,5.00,000.00,020.2,019.7,000.0,028.7,022.0,10.4,0000.0,0001.98,0001.02,0000.67
2024-03-27 19:01:00,SystemResetWarning,0827.4,5.01,000.00,020.2,019.7,000.0,028.7,021.9,10.5,0000.0,0001.94,0001.01,0000.67
2024-03-27 19:02:00,SystemResetWarning,0827.4,5.01,000.00,020.2,019.7,000.0,028.7,021.9,09.9,0000.0,0002.18,0001.02,0000.67
2024-03-27 19:03:00,SystemResetWarning,0827.4,5.00,000.00,020.2,019.7,000.0,028.7,021.9,10.9,0000.0,0002.57,0001.01,0000.69
2024-03-27 19:04:00,SystemResetWarning,0827.4,4.99,000.00,020.2,019.7,000.0,028.7,021.9,10.3,0000.0,0002.59,0001.02,0000.69
2024-03-27 19:05:00,SystemResetWarning,0827.4,4.99,000.00,020.2,019.7,000.0,028.7,021.9,10.0,0000.0,0002.75,0001.04,0000.68
2024-03-27 19:06:00,SystemResetWarning,0827.4,5.00,000.00,020.2,019.7,000.0,028.7,021.9,11.4,0000.0,0002.80,0001.06,0000.69
2024-03-27 19:07:00,SystemResetWarning,0827.4,5.01,000.00,020.2,019.7,000.0,028.7,021.9,10.3,0000.0,0002.75,0001.06,0000.69
2024-03-27 19:08:00,SystemResetWarning,0827.4,5.01,000.00,020.2,019.7,000.0,028.7,021.9,10.1,0000.0,0002.74,0001.06,0000.69
2024-03-27 19:09:00,SystemResetWarning,0827.4,4.99,000.00,020.2,019.7,000.0,028.7,021.9,09.9,0000.0,0002.65,0001.04,0000.69
2024-03-27 19:10:00,SystemResetWarning,0827.4,5.00,000.00,020.2,019.7,000.0,028.7,021.9,10.5,0000.0,0003.30,0001.04,0000.69
2024-03-27 19:11:00,SystemResetWarning,0827.4,5.00,000.00,020.2,019.7,000.0,028.7,022.0,10.7,0000.0,0003.72,0001.07,0000.68
2024-03-27 19:12:00,SystemResetWarning,0827.7,5.00,000.00,020.2,019.7,000.0,028.7,022.0,12.1,0000.0,0005.38,0001.10,0000.69
2024-03-27 19:13:00,SystemResetWarning,0827.4,5.00,000.00,020.2,019.7,000.0,028.7,022.0,09.7,0000.0,0005.69,0001.09,0000.70
2024-03-27 19:14:00,SystemResetWarning,0827.4,5.00,000.00,020.2,019.7,000.0,028.7,022.0,10.4,0000.0,0005.20,0001.07,0000.69
2024-03-27 19:15:00,SystemResetWarning,0827.4,5.00,000.00,020.2,019.7,000.0,028.7,022.0,09.9,0000.0,0005.06,0001.07,0000.69
2024-03-27 19:16:00,SystemResetWarning,0827.4,5.01,000.00,020.3,019.7,000.0,028.7,022.0,10.2,0000.0,0004.97,0001.05,0000.69
2024-03-27 19:17:00,SystemResetWarning,0827.4,4.99,000.00,020.3,019.7,000.0,028.7,022.0,11.3,0000.0,0005.01,0001.06,0000.69
2024-03-27 19:18:00,SystemResetWarning,0827.4,4.99,000.00,020.3,019.7,000.0,028.7,022.0,10.3,0000.0,0005.03,0001.06,0000.70
2024-03-27 19:19:00,SystemResetWarning,0827.4,4.99,000.00,020.2,019.7,000.0,028.7,022.0,10.2,0000.0,0004.93,0001.03,0000.70
2024-03-27 19:20:00,SystemResetWarning,0827.4,5.00,000.00,020.3,019.7,000.0,028.7,022.0,10.1,0000.0,0004.95,0001.04,0000.70
2024-03-27 19:21:00,SystemResetWarning,0827.4,5.01,000.00,020.2,019.7,000.0,028.7,022.0,09.7,0000.0,0004.82,0001.06,0000.70
2024-03-27 19:22:00,SystemResetWarning,0827.4,5.01,000.00,020.2,019.7,000.0,028.7,022.0,09.7,0000.0,0004.24,0001.08,0000.70
2024-03-27 19:23:00,SystemResetWarning,0827.4,4.98,000.00,020.2,019.7,000.0,028.7,022.0,10.3,0000.0,0003.20,0001.06,0000.70
2024-03-27 19:24:00,SystemResetWarning,0827.4,4.99,000.00,020.2,019.7,000.0,028.7,021.9,10.6,0000.0,0002.17,0001.08,0000.70
2024-03-27 19:25:00,SystemResetWarning,0827.4,5.00,000.00,020.2,019.7,000.0,028.7,022.0,10.9,0000.0,0002.07,0001.08,0000.70
2024-03-27 19:26:00,SystemResetWarning,0827.4,5.01,000.00,020.2,019.7,000.0,028.7,022.0,09.9,0000.0,0002.03,0001.09,0000.70
2024-03-27 19:27:00,SystemResetWarning,0827.4,5.01,000.00,020.2,019.7,000.0,028.7,022.0,09.7,0000.0,0002.17,0001.10,0000.71
2024-03-27 19:28:00,SystemResetWarning,0827.4,5.00,000.00,020.3,019.7,000.0,028.7,022.0,11.2,0000.0,0002.14,0001.07,0000.70
2024-03-27 19:29:00,SystemResetWarning,0827.6,5.00,000.00,020.3,019.7,000.0,028.7,022.0,10.3,0000.0,0001.96,0001.01,0000.69
2024-03-27 19:30:00,SystemResetWarning,0827.5,5.00,000.00,020.3,019.7,000.0,028.7,022.0,10.3,0000.0,0001.91,0001.00,0000.68
2024-03-27 19:31:00,SystemResetWarning,0827.6,4.99,000.00,020.3,019.7,000.0,028.7,022.0,09.8,0000.0,0001.94,0001.00,0000.68
2024-03-27 19:32:00,SystemResetWarning,0827.5,5.00,000.00,020.3,019.7,000.0,028.7,022.0,10.0,0000.0,0001.96,0001.01,0000.68
2024-03-27 19:33:00,SystemResetWarning,0827.7,5.01,000.00,020.3,019.7,000.0,028.7,022.0,10.9,0000.0,0001.93,0001.00,0000.68
2024-03-27 19:34:00,SystemResetWarning,0827.5,5.00,000.00,020.3,019.7,000.0,028.7,022.0,10.5,0000.0,0001.81,0000.95,0000.67
2024-03-27 19:35:00,SystemResetWarning,0827.5,5.01,000.00,020.3,019.7,000.0,028.7,022.0,10.6,0000.0,0001.69,0000.90,0000.66
2024-03-27 19:36:00,SystemResetWarning,0827.5,5.00,000.00,020.3,019.7,000.0,028.7,022.0,09.8,0000.0,0002.50,0000.89,0000.66
2024-03-27 19:37:00,SystemResetWarning,0827.8,4.99,000.00,020.3,019.7,000.0,028.7,022.0,09.7,0000.0,0002.87,0000.87,0000.65
2024-03-27 19:38:00,SystemResetWarning,0827.5,4.99,000.00,020.3,019.7,000.0,028.7,022.0,09.9,0000.0,0002.82,0000.85,0000.64
2024-03-27 19:39:00,SystemResetWarning,0827.5,4.99,000.00,020.3,019.7,000.0,028.7,022.0,11.4,0000.0,0002.65,0000.85,0000.63
2024-03-27 19:40:00,SystemResetWarning,0827.5,5.00,000.00,020.3,019.7,000.0,028.7,022.0,10.0,0000.0,0002.68,0000.86,0000.63
2024-03-27 19:41:00,SystemResetWarning,0827.6,5.00,000.00,020.3,019.7,000.0,028.7,022.0,09.2,0000.0,0002.71,0000.87,0000.64
2024-03-27 19:42:00,SystemResetWarning,0827.7,5.00,000.00,020.3,019.7,000.0,028.7,022.0,09.8,0000.0,0002.94,0000.92,0000.65
2024-03-27 19:43:00,SystemResetWarning,0827.5,5.01,000.00,020.3,019.7,000.0,028.7,022.0,10.0,0000.0,0004.45,0000.92,0000.65
2024-03-27 19:44:00,SystemResetWarning,0827.5,5.01,000.00,020.3,019.7,000.0,028.7,022.0,10.4,0000.0,0004.63,0000.89,0000.64
2024-03-27 19:45:00,SystemResetWarning,0827.7,5.00,000.00,020.3,019.8,000.0,028.7,022.0,11.0,0000.0,0004.65,0000.90,0000.65
2024-03-27 19:46:00,SystemResetWarning,0827.7,5.00,000.00,020.3,019.8,000.0,028.7,022.0,10.5,0000.0,0004.69,0000.92,0000.65
2024-03-27 19:47:00,SystemResetWarning,0827.5,4.99,000.00,020.3,019.8,000.0,028.7,022.0,10.6,0000.0,0003.93,0000.92,0000.64
2024-03-27 19:48:00,SystemResetWarning,0827.6,5.00,000.00,020.3,019.8,000.0,028.7,022.0,10.5,0000.0,0003.55,0000.93,0000.64
2024-03-27 19:49:00,SystemResetWarning,0827.4,4.99,000.00,020.3,019.8,000.0,028.7,022.0,09.7,0000.0,0003.52,0000.92,0000.64
2024-03-27 19:50:00,SystemResetWarning,0827.5,5.01,000.00,020.3,019.8,000.0,028.7,022.0,11.3,0000.0,0003.51,0000.94,0000.65
2024-03-27 19:51:00,SystemResetWarning,0827.4,5.00,000.00,020.3,019.8,000.0,028.7,022.0,11.7,0000.0,0003.47,0000.93,0000.65
2024-03-27 19:52:00,SystemResetWarning,0827.5,5.00,000.00,020.3,019.8,000.0,028.7,022.0,10.9,0000.0,0003.46,0000.92,0000.64
2024-03-27 19:53:00,SystemResetWarning,0827.4,5.01,000.00,020.3,019.8,000.0,028.7,022.0,12.2,0000.0,0003.37,0000.89,0000.63
2024-03-27 19:54:00,SystemResetWarning,0827.4,5.00,000.00,020.3,019.8,000.0,028.7,022.0,12.1,0000.0,0002.04,0000.85,0000.62
2024-03-27 19:55:00,SystemResetWarning,0827.6,4.99,000.00,020.3,019.8,000.0,028.7,022.0,10.8,0000.0,0001.47,0000.87,0000.62
2024-03-27 19:56:00,SystemResetWarning,0827.6,5.00,000.00,020.3,019.8,000.0,028.7,022.0,11.4,0000.0,0001.53,0000.88,0000.62
2024-03-27 19:57:00,SystemResetWarning,0827.4,4.99,000.00,020.3,019.8,000.0,028.7,022.0,12.5,0000.0,0001.44,0000.84,0000.61
2024-03-27 19:58:00,SystemResetWarning,0827.4,4.99,000.00,020.3,019.8,000.0,028.7,022.0,10.4,0000.0,0001.47,0000.87,0000.61
2024-03-27 19:59:00,SystemResetWarning,0827.4,5.00,000.00,020.3,019.7,000.0,028.7,022.0,11.9,0000.0,0001.42,0000.86,0000.61
